THA924 VTBS-EDDM

Flight info

Callsign THA924
Flight time N/A
Altitude 36000
Route TARED1F TARED P646 BBN R460 LKN/N0500F380 M890 JAL R594 DPN A589 BUTOP M875 DI N644 LEMOD A909 ABDAN/N0485F400 A909 RODAR N644 ADEKI DCT BADIR DCT LAGAS DCT FOQUS DCT SARPI UM10 GOKPA UL746 ODERO L746 LUGEB DCT MOPUG DCT SUNIS DCT AMADI Q113 NAPSA NAPSA4A
Aircraft A359/H-SDE2E3GHIJ3J4J5LM1ORWXY/LB1D1

Departure

Time 2026-05-05 22:47
Airport Suvarnabhumi Airport (VTBS)

Arrival

Time N/A
Airport Munich Airport (EDDM)
Time Latitude Longitude Altitude Speed Heading
2026-05-05 22:08 13.68858 100.74514 22 ft 0 kts 104°
2026-05-05 22:26 13.68858 100.74513 22 ft 3 kts 104°
2026-05-05 22:27 13.68865 100.74487 23 ft 4 kts 104°
2026-05-05 22:27 13.68871 100.74461 20 ft 2 kts 104°
2026-05-05 22:27 13.68877 100.74439 22 ft 4 kts 104°
2026-05-05 22:27 13.68881 100.74422 22 ft 4 kts 171°
2026-05-05 22:28 13.68903 100.74425 24 ft 4 kts 194°
2026-05-05 22:28 13.68929 100.74432 22 ft 4 kts 194°
2026-05-05 22:28 13.68926 100.74431 22 ft 0 kts 194°
2026-05-05 22:31 13.68923 100.74430 23 ft 4 kts 194°
2026-05-05 22:31 13.68884 100.74421 22 ft 7 kts 192°
2026-05-05 22:31 13.68837 100.74408 20 ft 8 kts 200°
2026-05-05 22:31 13.68796 100.74374 23 ft 8 kts 240°
2026-05-05 22:32 13.68793 100.74320 23 ft 8 kts 278°
2026-05-05 22:32 13.68807 100.74260 22 ft 9 kts 285°
2026-05-05 22:32 13.68820 100.74207 23 ft 8 kts 283°
2026-05-05 22:32 13.68836 100.74150 21 ft 8 kts 296°
2026-05-05 22:33 13.68881 100.74124 21 ft 8 kts 358°
2026-05-05 22:33 13.68935 100.74134 22 ft 9 kts 15°
2026-05-05 22:33 13.68983 100.74149 23 ft 6 kts 25°
2026-05-05 22:33 13.69018 100.74172 22 ft 2 kts 17°
2026-05-05 22:34 13.69024 100.74168 22 ft 0 kts 333°
2026-05-05 22:34 13.69025 100.74161 23 ft 2 kts 294°
2026-05-05 22:34 13.69007 100.74150 22 ft 5 kts 194°
2026-05-05 22:34 13.68961 100.74139 24 ft 10 kts 194°
2026-05-05 22:35 13.68884 100.74120 24 ft 11 kts 195°
2026-05-05 22:35 13.68810 100.74102 20 ft 10 kts 202°
2026-05-05 22:35 13.68741 100.74080 23 ft 11 kts 193°
2026-05-05 22:35 13.68666 100.74062 23 ft 12 kts 194°
2026-05-05 22:36 13.68585 100.74042 23 ft 12 kts 193°
2026-05-05 22:36 13.68500 100.74020 23 ft 12 kts 196°
2026-05-05 22:36 13.68416 100.73996 24 ft 13 kts 195°
2026-05-05 22:36 13.68325 100.73971 23 ft 14 kts 193°
2026-05-05 22:37 13.68229 100.73947 23 ft 15 kts 194°
2026-05-05 22:37 13.68130 100.73921 22 ft 15 kts 194°
2026-05-05 22:37 13.68026 100.73894 22 ft 15 kts 194°
2026-05-05 22:37 13.67923 100.73867 20 ft 16 kts 194°
2026-05-05 22:38 13.67816 100.73839 21 ft 16 kts 194°
2026-05-05 22:38 13.67706 100.73810 23 ft 16 kts 194°
2026-05-05 22:38 13.67593 100.73780 22 ft 17 kts 194°
2026-05-05 22:38 13.67478 100.73750 22 ft 17 kts 194°
2026-05-05 22:39 13.67382 100.73725 22 ft 13 kts 194°
2026-05-05 22:39 13.67292 100.73701 22 ft 14 kts 194°
2026-05-05 22:39 13.67217 100.73663 24 ft 12 kts 234°
2026-05-05 22:39 13.67214 100.73580 20 ft 12 kts 283°
2026-05-05 22:40 13.67247 100.73517 23 ft 9 kts 328°
2026-05-05 22:40 13.67308 100.73516 22 ft 9 kts 13°
2026-05-05 22:40 13.67369 100.73533 22 ft 9 kts 16°
2026-05-05 22:40 13.67433 100.73548 22 ft 10 kts 13°
2026-05-05 22:41 13.67502 100.73565 21 ft 11 kts 12°
2026-05-05 22:41 13.67554 100.73547 21 ft 8 kts 312°
2026-05-05 22:41 13.67572 100.73516 23 ft 8 kts 298°
2026-05-05 22:41 13.67590 100.73444 24 ft 8 kts 265°
2026-05-05 22:42 13.67559 100.73398 23 ft 8 kts 214°
2026-05-05 22:42 13.67502 100.73375 23 ft 10 kts 197°
2026-05-05 22:42 13.67434 100.73359 22 ft 11 kts 194°
2026-05-05 22:42 13.67359 100.73338 23 ft 12 kts 195°
2026-05-05 22:43 13.67276 100.73316 23 ft 12 kts 193°
2026-05-05 22:43 13.67220 100.73301 21 ft 13 kts 194°
2026-05-05 22:43 13.67129 100.73278 22 ft 14 kts 194°
2026-05-05 22:43 13.67032 100.73253 20 ft 15 kts 193°
2026-05-05 22:44 13.66898 100.73217 22 ft 15 kts 194°
2026-05-05 22:44 13.66828 100.73199 22 ft 16 kts 194°
2026-05-05 22:44 13.66722 100.73170 23 ft 16 kts 195°
2026-05-05 22:44 13.66614 100.73144 21 ft 16 kts 192°
2026-05-05 22:45 13.66511 100.73117 21 ft 12 kts 198°
2026-05-05 22:45 13.66485 100.73053 23 ft 10 kts 275°
2026-05-05 22:45 13.66503 100.72979 22 ft 11 kts 290°
2026-05-05 22:45 13.66544 100.72936 23 ft 7 kts 356°
2026-05-05 22:46 13.66597 100.72948 23 ft 11 kts 14°
2026-05-05 22:46 13.66851 100.73015 18 ft 67 kts 14°
2026-05-05 22:46 13.67482 100.73179 25 ft 118 kts 14°
2026-05-05 22:46 13.68431 100.73429 21 ft 163 kts 14°
2026-05-05 22:47 13.69586 100.73739 404 ft 170 kts 14°
2026-05-05 22:47 13.70712 100.74047 1011 ft 167 kts 14°
2026-05-05 22:47 13.71845 100.74349 1538 ft 167 kts 14°
2026-05-05 22:47 13.72946 100.74665 2044 ft 160 kts 17°
2026-05-05 22:48 13.73943 100.74990 2624 ft 140 kts 15°
2026-05-05 22:48 13.74893 100.75210 2908 ft 140 kts
2026-05-05 22:48 13.75859 100.75421 3112 ft 145 kts 14°
2026-05-05 22:48 13.76822 100.75790 3334 ft 150 kts 23°
2026-05-05 22:49 13.77781 100.76270 3557 ft 155 kts 26°
2026-05-05 22:49 13.78816 100.76754 3690 ft 168 kts 21°
2026-05-05 22:49 13.79927 100.77116 4052 ft 166 kts 13°
2026-05-05 22:49 13.81059 100.77327 4396 ft 166 kts
2026-05-05 22:50 13.82244 100.77514 4568 ft 179 kts
2026-05-05 22:50 13.83486 100.77764 4871 ft 183 kts 12°
2026-05-05 22:50 13.84712 100.78075 5258 ft 184 kts 14°
2026-05-05 22:50 13.85950 100.78355 5665 ft 181 kts 10°
2026-05-05 22:51 13.87198 100.78623 5980 ft 187 kts 13°
2026-05-05 22:51 13.88501 100.78995 6175 ft 201 kts 15°
2026-05-05 22:51 13.89894 100.79400 6361 ft 215 kts 15°
2026-05-05 22:51 13.91382 100.79816 6533 ft 231 kts 14°
2026-05-05 22:52 13.93005 100.80258 6736 ft 247 kts 14°
2026-05-05 22:52 13.94738 100.80581 6955 ft 262 kts
2026-05-05 22:52 13.96521 100.80137 7228 ft 271 kts 329°
2026-05-05 22:52 13.97975 100.78886 7720 ft 274 kts 314°
2026-05-05 22:53 13.99275 100.77470 8237 ft 277 kts 312°
2026-05-05 22:53 14.00591 100.76005 8771 ft 280 kts 313°
2026-05-05 22:53 14.01928 100.74528 9314 ft 283 kts 313°
2026-05-05 22:53 14.03279 100.73049 9833 ft 285 kts 313°
2026-05-05 22:54 14.04645 100.71559 10097 ft 286 kts 313°
2026-05-05 22:54 14.05970 100.70022 10129 ft 287 kts 306°
2026-05-05 22:54 14.06829 100.68180 10169 ft 287 kts 284°
2026-05-05 22:54 14.07221 100.66137 10318 ft 298 kts 279°
2026-05-05 22:55 14.07536 100.63979 10541 ft 312 kts 278°
2026-05-05 22:55 14.07861 100.61721 10774 ft 325 kts 278°
2026-05-05 22:55 14.08207 100.59375 11007 ft 337 kts 278°
2026-05-05 22:55 14.08570 100.56944 11241 ft 349 kts 278°
2026-05-05 22:56 14.08949 100.54435 11486 ft 360 kts 279°
2026-05-05 22:56 14.09340 100.51853 11692 ft 370 kts 279°
2026-05-05 22:56 14.09745 100.49208 12000 ft 377 kts 279°
2026-05-05 22:56 14.10149 100.46532 12381 ft 381 kts 279°
2026-05-05 22:57 14.10559 100.43823 12799 ft 384 kts 279°
2026-05-05 22:57 14.10971 100.41102 13226 ft 386 kts 279°
2026-05-05 22:57 14.11385 100.38363 13621 ft 389 kts 279°
2026-05-05 22:57 14.11803 100.35600 14029 ft 391 kts 279°
2026-05-05 22:58 14.12226 100.32817 14429 ft 393 kts 279°
2026-05-05 22:58 14.12650 100.30017 14825 ft 396 kts 278°
2026-05-05 22:58 14.13073 100.27215 15218 ft 398 kts 277°
2026-05-05 22:58 14.13477 100.24382 15592 ft 400 kts 277°
2026-05-05 22:59 14.13872 100.21570 15956 ft 402 kts 277°
2026-05-05 22:59 14.14283 100.18714 16324 ft 405 kts 277°
2026-05-05 22:59 14.14705 100.15838 16690 ft 407 kts 277°
2026-05-05 22:59 14.15134 100.12946 17041 ft 409 kts 277°
2026-05-05 23:00 14.16003 100.07130 17730 ft 413 kts 277°
2026-05-05 23:00 14.16442 100.04193 18061 ft 415 kts 277°
2026-05-05 23:00 14.16884 100.01244 18387 ft 417 kts 277°
2026-05-05 23:01 14.17327 99.98285 18694 ft 419 kts 277°
2026-05-05 23:01 14.17778 99.95309 19018 ft 421 kts 278°
2026-05-05 23:01 14.18489 99.92379 19290 ft 424 kts 289°
2026-05-05 23:01 14.19783 99.89644 19585 ft 425 kts 300°
2026-05-05 23:02 14.21390 99.87077 19923 ft 426 kts 302°
2026-05-05 23:02 14.23046 99.84535 20207 ft 428 kts 302°
2026-05-05 23:02 14.24689 99.82015 20481 ft 430 kts 302°
2026-05-05 23:02 14.26361 99.79440 20761 ft 432 kts 302°
2026-05-05 23:03 14.28033 99.76860 21043 ft 434 kts 302°
2026-05-05 23:03 14.29714 99.74262 21324 ft 436 kts 302°
2026-05-05 23:03 14.31396 99.71659 21599 ft 438 kts 302°
2026-05-05 23:03 14.33084 99.69043 21870 ft 439 kts 302°
2026-05-05 23:04 14.34787 99.66405 22141 ft 441 kts 302°
2026-05-05 23:04 14.36486 99.63769 22406 ft 443 kts 302°
2026-05-05 23:04 14.38198 99.61115 22673 ft 445 kts 302°
2026-05-05 23:04 14.39914 99.58452 22893 ft 447 kts 302°
2026-05-05 23:05 14.41640 99.55773 23149 ft 448 kts 302°
2026-05-05 23:05 14.43348 99.53079 23396 ft 450 kts 300°
2026-05-05 23:05 14.44914 99.50270 23642 ft 452 kts 297°
2026-05-05 23:05 14.46388 99.47406 23879 ft 453 kts 296°
2026-05-05 23:06 14.47829 99.44498 24115 ft 455 kts 295°
2026-05-05 23:06 14.49263 99.41576 24333 ft 457 kts 295°
2026-05-05 23:06 14.50704 99.38650 24550 ft 459 kts 296°
2026-05-05 23:06 14.52162 99.35711 24788 ft 460 kts 296°
2026-05-05 23:07 14.53613 99.32807 24972 ft 462 kts 296°
2026-05-05 23:07 14.55098 99.29849 25104 ft 465 kts 296°
2026-05-05 23:07 14.56589 99.26885 25230 ft 468 kts 296°
2026-05-05 23:07 14.58094 99.23901 25421 ft 469 kts 296°
2026-05-05 23:08 14.59599 99.20917 25700 ft 469 kts 296°
2026-05-05 23:08 14.61108 99.17924 25930 ft 470 kts 296°
2026-05-05 23:08 14.62613 99.14933 26155 ft 471 kts 296°
2026-05-05 23:08 14.64126 99.11924 26358 ft 472 kts 296°
2026-05-05 23:09 14.65639 99.08914 26570 ft 473 kts 296°
2026-05-05 23:09 14.67157 99.05892 26796 ft 474 kts 296°
2026-05-05 23:09 14.68677 99.02866 27019 ft 476 kts 296°
2026-05-05 23:09 14.70202 98.99827 27240 ft 477 kts 296°
2026-05-05 23:10 14.71733 98.96773 27385 ft 480 kts 296°
2026-05-05 23:10 14.73270 98.93707 27520 ft 482 kts 296°
2026-05-05 23:10 14.74815 98.90626 27673 ft 484 kts 296°
2026-05-05 23:10 14.76364 98.87536 27842 ft 485 kts 296°
2026-05-05 23:11 14.77915 98.84440 28018 ft 486 kts 296°
2026-05-05 23:11 14.79475 98.81326 28172 ft 488 kts 296°
2026-05-05 23:11 14.81033 98.78212 28321 ft 489 kts 296°
2026-05-05 23:11 14.82598 98.75086 28487 ft 490 kts 296°
2026-05-05 23:12 14.84161 98.71960 28654 ft 491 kts 296°
2026-05-05 23:12 14.85733 98.68817 28824 ft 492 kts 296°
2026-05-05 23:12 14.87305 98.65672 29024 ft 492 kts 296°
2026-05-05 23:12 14.88876 98.62527 29183 ft 493 kts 296°
2026-05-05 23:13 14.90432 98.59411 29357 ft 494 kts 296°
2026-05-05 23:13 14.92008 98.56251 29517 ft 495 kts 296°
2026-05-05 23:13 14.93585 98.53090 29681 ft 496 kts 296°
2026-05-05 23:13 14.95166 98.49921 29907 ft 495 kts 296°
2026-05-05 23:14 14.96744 98.46754 30175 ft 494 kts 296°
2026-05-05 23:14 14.98315 98.43599 30418 ft 493 kts 296°
2026-05-05 23:14 14.99886 98.40439 30607 ft 494 kts 296°
2026-05-05 23:14 15.01459 98.37274 30829 ft 494 kts 296°
2026-05-05 23:15 15.03025 98.34123 31092 ft 493 kts 296°
2026-05-05 23:15 15.04594 98.30966 31305 ft 492 kts 296°
2026-05-05 23:15 15.06158 98.27815 31482 ft 493 kts 295°
2026-05-05 23:15 15.07724 98.24661 31651 ft 493 kts 295°
2026-05-05 23:16 15.09295 98.21496 31881 ft 493 kts 295°
2026-05-05 23:16 15.10856 98.18348 32046 ft 493 kts 295°
2026-05-05 23:16 15.12410 98.15168 32232 ft 493 kts 295°
2026-05-05 23:16 15.13942 98.12003 32460 ft 491 kts 295°
2026-05-05 23:17 15.15465 98.08847 32711 ft 489 kts 295°
2026-05-05 23:17 15.16984 98.05699 32969 ft 488 kts 295°
2026-05-05 23:17 15.18480 98.02602 33180 ft 487 kts 295°
2026-05-05 23:17 15.19994 97.99470 33346 ft 487 kts 295°
2026-05-05 23:18 15.21530 97.96295 33542 ft 486 kts 295°
2026-05-05 23:18 15.23024 97.93209 33688 ft 487 kts 295°
2026-05-05 23:18 15.24562 97.90031 33835 ft 487 kts 295°
2026-05-05 23:18 15.26056 97.86947 34022 ft 485 kts 295°
2026-05-05 23:19 15.27568 97.83822 34231 ft 484 kts 295°
2026-05-05 23:19 15.29076 97.80704 34385 ft 484 kts 295°
2026-05-05 23:19 15.30585 97.77582 34542 ft 484 kts 295°
2026-05-05 23:19 15.32096 97.74453 34691 ft 484 kts 295°
2026-05-05 23:20 15.33600 97.71340 34815 ft 484 kts 295°
2026-05-05 23:20 15.35107 97.68218 34965 ft 483 kts 295°
2026-05-05 23:20 15.38094 97.62028 35004 ft 483 kts 295°
2026-05-05 23:21 15.41098 97.55799 34992 ft 483 kts 295°
2026-05-05 23:21 15.44102 97.49568 35003 ft 483 kts 295°
2026-05-05 23:22 15.47190 97.43381 34999 ft 483 kts 296°
2026-05-05 23:22 15.50358 97.37237 35003 ft 483 kts 296°
2026-05-05 23:23 15.53520 97.31085 34997 ft 483 kts 296°
2026-05-05 23:23 15.56662 97.24927 34999 ft 483 kts 296°
2026-05-05 23:24 15.59796 97.18764 34998 ft 483 kts 296°
2026-05-05 23:24 15.62911 97.12630 34999 ft 483 kts 296°
2026-05-05 23:25 15.66042 97.06462 34998 ft 483 kts 296°
2026-05-05 23:25 15.69175 97.00285 35003 ft 483 kts 296°
2026-05-05 23:26 15.72304 96.94112 35000 ft 483 kts 296°
2026-05-05 23:26 15.75430 96.87940 35000 ft 483 kts 296°
2026-05-05 23:27 15.78539 96.81794 35003 ft 483 kts 296°
2026-05-05 23:27 15.81665 96.75611 35003 ft 483 kts 296°
2026-05-05 23:28 15.84786 96.69432 35003 ft 483 kts 296°
2026-05-05 23:28 15.87906 96.63249 34994 ft 483 kts 296°
2026-05-05 23:29 15.91026 96.57061 34995 ft 483 kts 296°
2026-05-05 23:29 15.94142 96.50875 35003 ft 483 kts 296°
2026-05-05 23:30 15.96730 96.45734 35003 ft 483 kts 296°
2026-05-05 23:30 15.99843 96.39545 34997 ft 483 kts 296°
2026-05-05 23:31 16.02956 96.33349 34999 ft 483 kts 296°
2026-05-05 23:31 16.06064 96.27160 35001 ft 483 kts 296°
2026-05-05 23:32 16.09157 96.20993 35003 ft 483 kts 295°
2026-05-05 23:32 16.12260 96.14803 35003 ft 483 kts 295°
2026-05-05 23:33 16.15370 96.08592 35003 ft 483 kts 295°
2026-05-05 23:33 16.18468 96.02400 35003 ft 483 kts 295°
2026-05-05 23:34 16.21572 95.96188 35003 ft 483 kts 295°
2026-05-05 23:34 16.24671 95.89983 35000 ft 483 kts 295°
2026-05-05 23:35 16.27750 95.83813 35001 ft 483 kts 295°
2026-05-05 23:35 16.30846 95.77602 35003 ft 483 kts 295°
2026-05-05 23:36 16.33934 95.71401 35001 ft 483 kts 295°
2026-05-05 23:36 16.37024 95.65191 35003 ft 483 kts 295°
2026-05-05 23:37 16.40113 95.58977 35003 ft 483 kts 295°
2026-05-05 23:37 16.43209 95.52745 34995 ft 483 kts 295°
2026-05-05 23:38 16.46273 95.46570 34994 ft 483 kts 295°
2026-05-05 23:38 16.49359 95.40345 34999 ft 483 kts 295°
2026-05-05 23:39 16.52441 95.34125 35003 ft 483 kts 295°
2026-05-05 23:39 16.55522 95.27899 35000 ft 483 kts 295°
2026-05-05 23:40 16.58599 95.21676 35003 ft 483 kts 295°
2026-05-05 23:40 16.61677 95.15444 35000 ft 483 kts 295°
2026-05-05 23:41 16.64753 95.09210 34998 ft 483 kts 295°
2026-05-05 23:41 16.67826 95.02977 34999 ft 483 kts 295°
2026-05-05 23:42 16.70896 94.96746 35001 ft 483 kts 295°
2026-05-05 23:42 16.73967 94.90507 35001 ft 483 kts 295°
2026-05-05 23:43 16.77013 94.84312 35001 ft 483 kts 295°
2026-05-05 23:43 16.80138 94.78106 35002 ft 483 kts 300°
2026-05-05 23:44 16.84109 94.72423 35002 ft 484 kts 306°
2026-05-05 23:44 16.88322 94.66940 35000 ft 483 kts 307°
2026-05-05 23:45 16.92564 94.61510 35004 ft 483 kts 307°
2026-05-05 23:45 16.96814 94.56054 34995 ft 483 kts 307°
2026-05-05 23:46 17.01052 94.50589 35000 ft 484 kts 307°
2026-05-05 23:46 17.05282 94.45125 35000 ft 483 kts 307°
2026-05-05 23:47 17.09512 94.39656 34998 ft 483 kts 307°
2026-05-05 23:47 17.13737 94.34188 35001 ft 483 kts 307°
2026-05-05 23:48 17.17938 94.28749 35004 ft 483 kts 307°
2026-05-05 23:48 17.22163 94.23273 34992 ft 483 kts 307°
2026-05-05 23:49 17.26380 94.17804 34996 ft 483 kts 307°
2026-05-05 23:49 17.30603 94.12323 35001 ft 483 kts 307°
2026-05-05 23:50 17.34827 94.06836 34997 ft 483 kts 307°
2026-05-05 23:50 17.39019 94.01386 35003 ft 483 kts 307°
2026-05-05 23:51 17.43235 93.95900 35000 ft 483 kts 307°
2026-05-05 23:51 17.47452 93.90410 34996 ft 483 kts 307°
2026-05-05 23:52 17.51662 93.84922 35001 ft 483 kts 307°
2026-05-05 23:52 17.55876 93.79426 35003 ft 483 kts 307°
2026-05-05 23:53 17.60090 93.73925 35004 ft 483 kts 307°
2026-05-05 23:53 17.64297 93.68429 35003 ft 483 kts 307°
2026-05-05 23:54 17.68476 93.62964 34999 ft 483 kts 307°
2026-05-05 23:54 17.72678 93.57465 34998 ft 483 kts 307°
2026-05-05 23:55 17.76883 93.51957 35000 ft 483 kts 307°
2026-05-05 23:55 17.81085 93.46449 35003 ft 483 kts 307°
2026-05-05 23:56 17.85290 93.40932 34999 ft 483 kts 307°
2026-05-05 23:56 17.89490 93.35416 34998 ft 483 kts 307°
2026-05-05 23:57 17.93667 93.29927 35004 ft 483 kts 307°
2026-05-05 23:57 17.97864 93.24407 35000 ft 483 kts 307°
2026-05-05 23:58 18.02057 93.18887 34986 ft 483 kts 307°
2026-05-05 23:58 18.06256 93.13356 34986 ft 483 kts 307°
2026-05-05 23:59 18.10444 93.07833 35003 ft 483 kts 307°
2026-05-05 23:59 18.14635 93.02301 34999 ft 483 kts 307°
2026-05-06 00:00 18.18825 92.96767 35003 ft 483 kts 307°
2026-05-06 00:00 18.22984 92.91268 34999 ft 483 kts 307°
2026-05-06 00:01 18.27170 92.85730 34996 ft 483 kts 307°
2026-05-06 00:01 18.31354 92.80189 34999 ft 483 kts 306°
2026-05-06 00:02 18.35542 92.74638 35003 ft 483 kts 306°
2026-05-06 00:02 18.39695 92.69129 35003 ft 483 kts 306°
2026-05-06 00:03 18.43874 92.63580 35000 ft 483 kts 306°
2026-05-06 00:03 18.48051 92.58030 34999 ft 483 kts 306°
2026-05-06 00:04 18.52230 92.52471 35001 ft 483 kts 306°
2026-05-06 00:04 18.56397 92.46923 35003 ft 483 kts 306°
2026-05-06 00:05 18.62655 92.38583 35004 ft 483 kts 306°
2026-05-06 00:06 18.66822 92.33023 35001 ft 483 kts 306°
2026-05-06 00:06 18.70991 92.27456 35001 ft 483 kts 306°
2026-05-06 00:07 18.75129 92.21926 35001 ft 483 kts 306°
2026-05-06 00:07 18.79295 92.16353 35001 ft 483 kts 306°
2026-05-06 00:08 18.83457 92.10780 35003 ft 483 kts 306°
2026-05-06 00:08 18.87617 92.05206 35000 ft 483 kts 306°
2026-05-06 00:09 18.91774 91.99630 35003 ft 483 kts 306°
2026-05-06 00:09 18.95912 91.94022 35004 ft 483 kts 306°
2026-05-06 00:10 19.00011 91.88391 35000 ft 483 kts 306°
2026-05-06 00:10 19.04081 91.82799 35003 ft 483 kts 306°
2026-05-06 00:11 19.08183 91.77172 35000 ft 483 kts 306°
2026-05-06 00:11 19.12295 91.71533 35001 ft 483 kts 306°
2026-05-06 00:12 19.16395 91.65904 34999 ft 483 kts 306°
2026-05-06 00:12 19.20496 91.60269 35000 ft 483 kts 306°
2026-05-06 00:13 19.24598 91.54627 35001 ft 483 kts 306°
2026-05-06 00:13 19.28670 91.49022 35003 ft 483 kts 306°
2026-05-06 00:14 19.32774 91.43367 35002 ft 483 kts 306°
2026-05-06 00:14 19.36873 91.37713 35003 ft 483 kts 306°
2026-05-06 00:15 19.40961 91.32069 35003 ft 483 kts 306°
2026-05-06 00:15 19.45057 91.26409 34999 ft 483 kts 306°
2026-05-06 00:16 19.49117 91.20794 35003 ft 483 kts 306°
2026-05-06 00:16 19.53207 91.15132 35000 ft 483 kts 306°
2026-05-06 00:17 19.57294 91.09468 35000 ft 483 kts 305°
2026-05-06 00:17 19.61383 91.03797 35004 ft 483 kts 305°
2026-05-06 00:18 19.65461 90.98135 34986 ft 483 kts 305°
2026-05-06 00:18 19.69542 90.92464 34986 ft 483 kts 305°
2026-05-06 00:19 19.73618 90.86795 34998 ft 483 kts 305°
2026-05-06 00:19 19.77005 90.82079 34999 ft 483 kts 305°
2026-05-06 00:20 19.81083 90.76398 35003 ft 483 kts 305°
2026-05-06 00:20 19.85819 90.69793 34998 ft 483 kts 305°
2026-05-06 00:21 19.89889 90.64110 35000 ft 483 kts 305°
2026-05-06 00:21 19.93299 90.59344 35003 ft 483 kts 305°